Wind_Speed
16 16 16 16 14 17 19 19 17 17 17 17 16 15 14 12 12 12 10 9 9 8 6 6 6 6 7 6 5 3 4 5 8 10 11 11 11 12 11 10 11 10 12
18 16 17 15 15 14 17 21 17 18 19 20 19 18 18 17 16 15 13 12 11 11 9 8 7 7 8 8 7 5 4 6 9 10 11 13 13 13 12 12 12 12 13
18 16 18 16 17 16 16 16 20 18 21 20 21 21 21 20 19 17 16 15 13 13 13 10 8 8 9 10 9 9 6 6 8 8 10 12 13 14 15 14 13 14 15
18 19 21 19 18 20 19 18 15 18 21 21 21 23 24 23 22 21 19 18 16 15 14 12 12 11 9 12 11 11 8 7 8 8 10 10 12 13 15 16 15 15 16
18 19 21 21 20 19 19 21 18 19 17 21 23 24 25 24 23 23 22 21 20 18 16 15 13 13 12 12 14 13 10 9 10 10 11 12 13 13 14 16 16 16 17
15 15 20 20 22 20 20 22 22 22 21 20 21 24 26 28 27 26 24 23 22 20 19 16 14 13 13 14 15 15 13 10 11 12 13 14 14 14 16 17 17 18 19
17 18 18 19 20 21 23 23 25 26 24 24 24 22 25 28 28 28 27 25 24 24 21 18 16 16 15 14 16 17 15 13 12 13 15 16 16 15 17 19 19 18 20
20 21 22 23 23 22 22 23 27 29 29 27 27 27 28 28 28 29 29 29 28 26 24 22 20 18 17 17 18 19 18 16 15 15 16 18 18 19 19 20 20 22 23
20 22 23 24 24 27 26 23 25 30 32 32 32 32 31 30 29 31 32 32 30 29 27 27 23 21 20 22 22 21 21 17 17 18 19 20 20 20 21 22 22 23 24
25 26 27 27 27 28 27 27 29 28 31 34 35 34 33 33 32 31 32 33 33 31 30 29 27 25 24 23 25 24 23 22 21 20 21 22 21 22 23 23 25 24 25
26 28 29 30 30 30 30 31 31 32 36 35 35 37 37 35 34 34 33 34 34 34 32 31 30 28 28 26 27 27 26 24 23 22 22 24 24 23 24 24 25 24 22
30 31 33 33 34 34 34 34 34 34 35 37 40 37 37 38 37 37 38 39 35 35 34 33 32 31 31 28 29 30 27 25 26 25 22 24 25 24 26 26 26 25 25
37 37 38 39 39 40 40 39 39 39 39 40 42 41 43 42 37 38 38 36 41 36 35 34 34 33 33 32 26 28 28 26 27 25 24 24 25 25 27 28 29 27 26
44 45 45 46 46 46 46 46 46 46 46 44 45 46 45 46 49 49 50 49 45 44 37 36 36 36 35 35 34 28 28 24 27 26 26 24 25 25 26 30 29 30 29
49 50 51 52 53 54 54 54 53 52 53 51 51 50 49 49 47 47 50 49 42 41 39 38 38 38 38 39 37 35 31 29 27 26 26 24 25 26 24 30 32 32 33
50 53 55 57 58 60 61 61 61 61 60 58 58 57 54 54 52 50 50 51 44 44 45 40 38 38 40 41 38 37 35 33 31 27 28 25 24 26 26 31 32 30 31
52 54 56 58 60 63 65 67 69 69 69 68 66 64 63 60 57 56 54 56 53 50 48 44 44 42 43 43 41 39 39 38 35 30 29 28 24 24 28 32 34 30 30
53 55 57 59 61 65 67 70 72 74 76 76 74 73 70 69 65 62 59 57 57 54 51 53 50 50 47 47 44 41 41 41 39 36 31 28 26 25 28 32 32 25 29
58 60 61 64 66 67 70 73 76 79 80 81 82 81 79 76 73 69 66 62 60 58 56 54 54 53 51 51 48 45 45 43 42 40 34 30 27 27 28 33 30 25 23
60 62 66 70 74 77 79 79 79 81 85 86 86 86 86 84 82 77 74 70 66 63 61 59 57 53 51 53 50 48 47 45 44 41 38 34 29 29 31 31 32 28 30
71 75 79 82 85 87 87 85 87 87 87 88 90 92 91 90 90 87 81 78 73 68 65 63 61 57 55 52 51 51 49 47 45 43 40 36 32 30 33 32 34 32 33
81 85 89 94 96 95 97 99 99 98 97 95 95 95 95 95 95 93 90 85 81 76 70 67 64 61 59 57 52 51 51 49 46 43 41 39 35 31 33 35 34 37 37
88 92 96 99 99 99 99 96 93 92 92 93 96 102 103 101 100 98 96 92 88 83 77 72 70 65 63 62 58 55 53 50 47 45 43 41 37 34 33 35 35 38 34
92 95 98 96 91 85 83 82 83 84 85 86 88 94 103 108 107 104 100 98 95 90 85 79 74 71 68 64 63 61 58 52 50 48 45 44 39 36 36 37 37 40 40
93 93 87 82 80 79 79 78 77 78 80 80 81 82 89 97 104 108 104 102 100 96 90 86 79 77 71 68 65 64 62 58 52 50 48 45 41 39 36 38 41 43 42
88 83 79 77 75 74 72 71 70 69 69 71 72 74 77 85 90 102 106 104 102 100 95 92 86 80 76 73 69 66 65 62 56 52 49 47 41 37 35 35 42 45 47
Wind_Direction
242 246 250 239 230 265 257 244 243 248 249 247 246 246 244 246 253 259 264 266 266 264 271 287 306 304 308 302 299 265 221 245 235 239 234 244 254 248 240 236 239 246 251
249 247 249 249 239 242 260 258 244 244 251 250 248 250 253 255 255 257 263 262 263 264 260 268 284 296 296 286 284 267 231 231 234 239 239 232 244 252 247 242 242 245 255
254 250 247 244 246 251 256 269 252 248 240 242 245 246 246 249 252 254 260 262 263 265 265 267 268 278 282 276 265 261 233 233 242 238 241 239 250 249 247 244 245 247 250
256 251 250 242 244 251 254 261 259 264 258 254 248 244 243 243 248 252 254 256 256 258 263 268 267 269 263 269 259 253 244 247 246 235 245 250 251 253 248 245 245 248 250
255 252 250 244 242 249 256 257 257 255 255 260 260 260 259 251 247 248 250 251 251 250 251 253 257 266 265 258 252 246 246 252 260 246 244 250 254 256 252 245 242 245 247
263 262 258 259 250 248 254 257 254 254 255 252 251 260 262 260 256 254 253 252 251 252 252 251 253 256 266 257 249 250 248 249 258 256 253 252 252 258 258 247 245 242 244
266 269 269 265 263 258 251 251 254 256 255 255 254 249 258 259 258 257 256 257 255 252 250 249 251 255 255 253 250 252 255 252 255 262 263 257 256 257 253 252 244 243 242
268 268 271 270 267 267 258 252 253 255 256 255 255 254 251 254 257 257 256 253 252 253 252 247 245 245 250 248 246 250 253 256 259 261 264 262 255 254 253 252 245 244 241
268 270 268 268 269 266 262 260 257 257 258 256 254 253 252 253 251 254 255 255 252 250 248 249 244 243 242 244 244 248 251 254 257 263 262 260 255 253 254 251 248 246 248
270 269 268 270 270 267 265 262 258 260 261 262 260 257 255 252 252 250 252 253 252 249 248 246 245 244 240 241 246 248 251 257 260 265 270 265 259 254 252 251 247 246 248
271 271 271 270 268 268 267 267 263 259 259 262 263 261 259 254 253 254 253 251 251 248 246 245 244 243 245 241 244 250 252 255 263 266 268 263 260 254 249 251 251 250 249
274 274 273 274 274 272 269 266 264 263 258 258 259 262 264 260 254 254 255 248 249 249 246 245 246 243 245 246 247 250 253 257 264 264 268 264 261 258 248 245 250 246 249
275 273 274 273 274 274 273 272 270 266 262 259 259 257 258 260 257 258 258 258 244 241 244 244 244 246 245 245 246 250 255 254 257 259 265 265 260 259 247 243 245 245 246
279 278 277 275 273 272 270 270 270 269 267 262 259 258 256 256 257 258 261 264 263 244 238 241 244 242 245 246 246 243 246 250 252 256 260 263 262 261 249 245 241 248 246
279 279 278 277 276 275 274 271 268 266 266 266 263 259 257 256 254 255 258 261 261 255 238 238 239 242 243 245 245 245 246 247 251 252 256 259 258 265 251 245 240 245 249
273 274 274 274 274 275 274 272 270 268 265 262 262 262 259 257 254 252 253 256 258 253 239 238 240 242 242 243 243 244 245 246 249 248 251 258 257 264 247 243 242 244 247
275 276 276 274 274 273 271 271 272 269 267 265 262 259 259 258 255 253 251 252 256 258 237 243 245 244 243 242 242 242 242 245 245 247 250 251 255 259 246 241 243 246 250
274 273 272 273 275 275 274 273 270 268 268 266 263 261 258 256 255 253 251 250 252 252 251 243 247 247 244 243 241 242 242 242 245 246 246 250 251 253 247 239 240 245 257
284 282 279 276 275 275 274 272 270 268 266 264 264 261 260 257 253 253 252 249 249 249 247 246 245 246 244 242 239 239 242 241 244 245 244 247 249 248 246 242 237 239 241
291 289 288 287 286 283 279 275 271 267 265 262 261 260 258 257 255 251 251 250 247 246 246 244 245 243 242 243 241 238 240 241 243 245 244 243 246 243 245 242 240 232 229
298 297 295 293 290 288 285 279 274 269 264 262 260 257 255 255 253 252 249 248 247 245 243 244 243 244 242 240 241 240 240 241 242 244 245 243 241 239 244 243 245 235 233
303 302 300 299 296 292 288 285 280 274 269 260 255 255 254 252 251 249 249 246 246 244 242 242 242 242 241 241 239 240 239 239 241 244 245 244 240 240 239 244 246 234 232
305 303 301 298 294 292 288 284 279 274 268 261 255 250 248 249 248 247 245 245 243 243 241 239 239 240 239 239 238 239 240 239 240 242 243 244 240 238 238 239 242 225 224
305 302 300 296 292 289 285 281 278 274 271 265 257 250 246 243 243 242 242 241 241 240 240 238 237 238 238 238 237 237 239 237 237 239 241 242 240 238 241 236 239 232 228
303 301 299 296 294 292 289 285 281 276 272 267 261 255 247 245 242 239 237 236 237 237 237 238 236 237 235 237 237 237 238 237 235 237 239 240 241 238 239 238 239 230 229
303 301 300 299 299 297 293 289 284 279 274 269 265 257 250 245 241 238 236 233 232 233 233 235 235 234 233 234 236 237 237 237 234 234 236 237 238 237 237 228 234 229 233
Height
5836 5838 5839 5840 5840 5844 5846 5844 5844 5845 5846 5848 5849 5850 5851 5852 5853 5854 5854 5854 5854 5854 5855 5855 5854 5854 5854 5854 5855 5855 5854 5854 5855 5856 5856 5857 5858 5859 5861 5861 5862 5862 5862
5834 5836 5836 5838 5839 5838 5842 5844 5843 5843 5844 5845 5846 5847 5848 5849 5851 5852 5852 5853 5854 5853 5853 5853 5854 5853 5852 5853 5853 5854 5854 5854 5855 5856 5856 5856 5857 5858 5860 5861 5861 5862 5862
5831 5833 5833 5834 5836 5837 5839 5840 5842 5842 5841 5841 5843 5844 5845 5846 5847 5848 5849 5850 5851 5852 5851 5851 5852 5852 5851 5852 5852 5853 5853 5853 5854 5854 5855 5855 5856 5857 5859 5860 5861 5862 5862
5827 5829 5830 5830 5832 5834 5835 5837 5837 5840 5842 5842 5840 5840 5841 5842 5843 5844 5845 5847 5848 5849 5849 5849 5850 5849 5849 5849 5850 5851 5851 5851 5852 5852 5852 5852 5853 5855 5858 5859 5861 5862 5862
5824 5825 5827 5828 5828 5831 5833 5834 5834 5834 5837 5840 5840 5841 5841 5840 5840 5840 5841 5842 5844 5844 5846 5847 5847 5847 5847 5847 5848 5849 5850 5850 5850 5850 5851 5851 5851 5853 5855 5857 5859 5860 5861
5821 5822 5823 5825 5826 5827 5829 5830 5830 5831 5832 5833 5835 5838 5839 5839 5839 5839 5839 5840 5841 5842 5843 5844 5844 5845 5845 5845 5845 5846 5847 5847 5849 5848 5849 5850 5850 5850 5852 5855 5857 5858 5859
5818 5819 5820 5821 5822 5823 5824 5825 5826 5827 5827 5828 5829 5830 5833 5835 5835 5836 5837 5838 5838 5839 5839 5840 5840 5841 5842 5842 5843 5844 5844 5845 5846 5846 5847 5848 5847 5848 5849 5852 5854 5855 5856
5815 5816 5816 5817 5818 5819 5820 5821 5821 5822 5823 5823 5824 5826 5827 5829 5831 5832 5832 5833 5834 5836 5837 5837 5837 5837 5838 5839 5840 5841 5843 5842 5842 5844 5844 5845 5845 5846 5847 5848 5851 5851 5853
5812 5812 5813 5813 5813 5814 5816 5817 5817 5818 5818 5819 5819 5820 5822 5824 5825 5826 5827 5829 5830 5831 5833 5833 5834 5835 5835 5836 5837 5838 5840 5839 5840 5840 5841 5842 5843 5843 5844 5845 5847 5848 5849
5807 5807 5808 5808 5809 5810 5811 5812 5812 5813 5813 5814 5815 5815 5817 5818 5818 5820 5822 5823 5825 5826 5828 5829 5830 5831 5831 5832 5833 5834 5836 5837 5836 5836 5838 5838 5839 5840 5842 5842 5843 5844 5846
5803 5803 5803 5804 5804 5804 5805 5806 5806 5807 5808 5808 5809 5810 5811 5812 5814 5815 5816 5816 5819 5821 5822 5823 5825 5825 5826 5827 5829 5830 5832 5833 5833 5833 5834 5835 5835 5836 5837 5839 5840 5841 5843
5798 5798 5798 5798 5798 5798 5798 5799 5800 5801 5801 5801 5802 5804 5805 5806 5807 5808 5809 5809 5812 5814 5816 5817 5819 5819 5821 5822 5824 5825 5827 5829 5829 5829 5829 5830 5831 5831 5832 5835 5835 5837 5839
5792 5792 5792 5792 5792 5792 5792 5792 5793 5793 5794 5794 5795 5796 5797 5799 5800 5801 5802 5802 5804 5806 5808 5810 5813 5814 5815 5816 5818 5820 5822 5823 5824 5825 5825 5826 5827 5827 5827 5830 5830 5832 5834
5783 5783 5783 5783 5784 5784 5784 5784 5785 5786 5786 5786 5786 5788 5789 5790 5792 5793 5794 5795 5797 5799 5800 5803 5806 5807 5808 5810 5812 5813 5815 5817 5817 5819 5819 5821 5822 5822 5822 5824 5827 5827 5829
5773 5773 5773 5773 5773 5774 5774 5775 5775 5776 5776 5777 5777 5778 5779 5781 5782 5785 5786 5786 5789 5791 5794 5794 5796 5799 5800 5803 5806 5808 5809 5810 5811 5813 5813 5814 5817 5817 5817 5818 5821 5822 5823
5764 5763 5762 5762 5761 5761 5761 5762 5762 5764 5765 5766 5766 5767 5769 5770 5772 5774 5777 5778 5780 5781 5785 5788 5789 5790 5792 5795 5798 5801 5802 5804 5804 5806 5808 5809 5810 5812 5811 5812 5815 5816 5818
5754 5752 5751 5750 5749 5748 5748 5747 5746 5748 5750 5751 5753 5754 5756 5758 5761 5763 5765 5768 5770 5772 5774 5778 5780 5782 5784 5786 5790 5792 5794 5796 5797 5799 5801 5803 5805 5806 5806 5806 5809 5813 5814
5743 5741 5740 5739 5736 5735 5734 5733 5733 5732 5731 5733 5736 5738 5742 5743 5747 5750 5754 5756 5758 5762 5766 5768 5770 5773 5776 5778 5782 5784 5786 5788 5790 5792 5795 5797 5799 5800 5800 5802 5805 5810 5808
5728 5726 5725 5724 5723 5721 5718 5715 5714 5713 5714 5715 5716 5719 5723 5727 5731 5736 5739 5743 5745 5749 5754 5757 5760 5762 5766 5768 5772 5775 5777 5780 5782 5784 5787 5791 5793 5794 5795 5797 5802 5804 5805
5711 5709 5707 5705 5703 5700 5698 5697 5695 5693 5692 5693 5696 5698 5701 5707 5711 5718 5723 5727 5731 5735 5739 5744 5749 5752 5755 5758 5761 5765 5768 5771 5773 5776 5780 5783 5787 5788 5789 5792 5797 5800 5802
5689 5685 5682 5678 5675 5672 5670 5670 5669 5668 5669 5670 5672 5674 5678 5683 5689 5696 5704 5709 5714 5720 5725 5730 5734 5741 5745 5747 5751 5755 5759 5762 5765 5767 5772 5776 5779 5781 5784 5785 5790 5793 5798
5664 5658 5653 5648 5643 5639 5636 5634 5634 5635 5636 5640 5643 5647 5651 5657 5663 5672 5681 5688 5694 5702 5710 5714 5720 5726 5732 5737 5740 5744 5747 5753 5756 5759 5764 5767 5771 5774 5777 5778 5782 5787 5791
5643 5636 5630 5623 5616 5609 5604 5599 5596 5595 5597 5602 5607 5613 5619 5626 5635 5644 5655 5665 5673 5683 5691 5697 5704 5711 5718 5723 5728 5732 5737 5743 5747 5749 5754 5758 5762 5766 5769 5772 5775 5781 5784
5623 5614 5604 5594 5588 5582 5577 5574 5569 5566 5564 5565 5571 5577 5582 5591 5601 5612 5625 5638 5648 5661 5671 5679 5686 5695 5701 5709 5714 5721 5725 5732 5736 5740 5743 5748 5753 5757 5761 5764 5768 5772 5776
5601 5590 5580 5570 5563 5557 5550 5546 5542 5538 5536 5535 5538 5544 5551 5557 5566 5577 5593 5608 5621 5635 5649 5658 5668 5675 5685 5693 5700 5707 5712 5719 5725 5729 5734 5739 5743 5748 5752 5755 5760 5764 5769
5578 5569 5559 5549 5540 5533 5525 5519 5516 5513 5510 5510 5510 5515 5521 5527 5535 5545 5560 5576 5591 5607 5623 5636 5647 5659 5667 5676 5686 5693 5699 5707 5715 5719 5724 5728 5732 5737 5743 5747 5752 5757 5762